This is the latest recevied weather packets stored in our database for station/object KE0PRS. If no packets are shown the sender has not sent any weather packets the latest 10 day(s).
| Time | Temp. | Humidity | Pressure | Rain* | Wind** | Luminosity | Snow |
|---|---|---|---|---|---|---|---|
| 1777824950 | 26.67° C | 20% | 1014.3 hPa | 0 mm | - | 635 W/m² | - |
| 1777824646 | 26.67° C | 20% | 1014.1 hPa | 0 mm | - | 621 W/m² | - |
| 1777824343 | 26.67° C | 19% | 1014.3 hPa | 0 mm | - | 607 W/m² | - |
| 1777824039 | 26.67° C | 22% | 1014.3 hPa | 0 mm | - | 594 W/m² | - |
| 1777823735 | 26.67° C | 23% | 1014.3 hPa | 0 mm | - | 580 W/m² | - |
| 1777823432 | 26.11° C | 21% | 1014.4 hPa | 0 mm | - | 566 W/m² | - |
| 1777823130 | 26.11° C | 24% | 1014.4 hPa | 0 mm | - | 550 W/m² | - |
| 1777822827 | 25.56° C | 25% | 1014.4 hPa | 0 mm | - | 535 W/m² | - |
| 1777822525 | 25.56° C | 26% | 1014.3 hPa | 0 mm | - | 519 W/m² | - |
| 1777822222 | 25° C | 24% | 1014.4 hPa | 0 mm | - | 503 W/m² | - |
| 1777821920 | 25° C | 28% | 1014.5 hPa | 0 mm | - | 487 W/m² | - |
| 1777821618 | 24.44° C | 28% | 1014.5 hPa | 0 mm | - | 471 W/m² | - |
| 1777821316 | 24.44° C | 30% | 1014.5 hPa | 0 mm | - | 450 W/m² | - |
| 1777821012 | 23.89° C | 31% | 1014.8 hPa | 0 mm | - | 438 W/m² | - |
| 1777820709 | 23.89° C | 32% | 1014.7 hPa | 0 mm | - | 421 W/m² | - |
| 1777820404 | 23.33° C | 33% | 1014.9 hPa | 0 mm | - | 406 W/m² | - |
| 1777820102 | 22.78° C | 31% | 1015 hPa | 0 mm | - | 391 W/m² | - |
| 1777819799 | 22.78° C | 34% | 1015.2 hPa | 0 mm | - | 374 W/m² | - |
| 1777819497 | 22.22° C | 34% | 1015.1 hPa | 0 mm | - | 358 W/m² | - |
| 1777819194 | 21.67° C | 37% | 1015 hPa | 0 mm | - | 340 W/m² | - |
| 1777818891 | 21.11° C | 38% | 1015.1 hPa | 0 mm | - | 326 W/m² | - |
| 1777818587 | 20.56° C | 40% | 1015.1 hPa | 0 mm | - | 310 W/m² | - |
| 1777818284 | 20° C | 42% | 1015.2 hPa | 0 mm | - | 296 W/m² | - |
| 1777817981 | 18.89° C | 43% | 1015.6 hPa | 0 mm | - | 283 W/m² | - |
| 1777817678 | 18.89° C | 43% | 1015.3 hPa | 0 mm | - | 269 W/m² | - |
* Rain latest hour (hover to see other rain measurements)
** Current wind speed in m/s (hover to see current wind gust speed)